Tekamah, NE

10:51 PM CST on February 12, 2016 (GMT -0600)
Tekamah

Weather History for KTQE - September, 2012

Change the Weather History Date:

Saturday, September 8, 2012

  Actual Average Record
Temperature  
Mean Temperature 66 °F -  
Max Temperature 87 °F 82 °F 99 °F (1971)
Min Temperature 44 °F 57 °F 41 °F (1986)
Growing Degree Days 16 (Base 50)    
Moisture  
Dew Point 41 °F    
Average Humidity 49    
Maximum Humidity 90    
Minimum Humidity 16    
Precipitation  
Precipitation 0.00 in - - ()
Sea Level Pressure  
Sea Level Pressure 30.05 in    
Wind  
Wind Speed 7 mph (WNW)    
Max Wind Speed 17 mph    
Max Gust Speed 26 mph    
Visibility 10 miles    
Events      
Averages and records for this station are not official NWS values.
T = Trace of Precipitation, MM = Missing Value Source: NWS Daily Summary

Daily Weather History Graph

Daily Weather History Graph

Search for Another Location

Airport or City:

Trip Planner

Search our weather history database for the weather conditions in past years. The results will help you decide how hot, cold, wet, or windy it might be!

Date:

Astronomy

Sep. 08, 2012 Rise Set
Actual Time 6:58 AM CDT 7:45 PM CDT
Civil Twilight 6:30 AM CDT 8:13 PM CDT
Nautical Twilight 5:56 AM CDT 8:46 PM CDT
Astronomical Twilight 5:21 AM CDT 9:21 PM CDT
Moon No Moon Rise 2:47 PM CDT (9/8)
Length of Visible Light 13h 43m
Length of Day
12h 47m
Waning Gibbous, 48% of the Moon is Illuminated
Sep 8
Waning Gibbous
Sep 15
New
Sep 22
First Quarter
Sep 29
Full
Oct 8
Last Quarter

Hourly Weather History & Observations

Time (CDT) Temp. Windchill Dew Point Humidity Pressure Visibility Wind Dir Wind Speed Gust Speed Precip Events Conditions
12:54 AM 51.1 °F - 44.1 °F 77% 30.11 in 10.0 mi NW 4.6 mph - N/A   Clear
1:54 AM 46.9 °F - 43.0 °F 86% 30.13 in 10.0 mi West 5.8 mph - N/A   Clear
2:54 AM 48.0 °F - 43.0 °F 83% 30.12 in 10.0 mi Calm Calm - N/A   Clear
3:54 AM 45.0 °F - 42.1 °F 90% 30.13 in 10.0 mi Calm Calm - N/A   Clear
4:54 AM 46.0 °F 43.9 °F 41.0 °F 83% 30.13 in 10.0 mi West 4.6 mph - N/A   Clear
5:54 AM 44.1 °F - 39.9 °F 85% 30.14 in 10.0 mi Calm Calm - N/A   Clear
6:54 AM 44.1 °F - 39.9 °F 85% 30.14 in 10.0 mi Calm Calm - N/A   Clear
7:54 AM 50.0 °F - 45.0 °F 83% 30.16 in 10.0 mi WSW 3.5 mph - N/A   Clear
9:54 AM 66.0 °F - 44.1 °F 45% 30.12 in 10.0 mi West 12.7 mph - N/A   Clear
10:54 AM 72.0 °F - 44.1 °F 37% 30.10 in 10.0 mi West 10.4 mph - N/A   Clear
11:54 AM 77.0 °F - 41.0 °F 28% 30.08 in 10.0 mi WNW 13.8 mph 20.7 mph N/A   Clear
12:54 PM 79.0 °F - 39.9 °F 25% 30.05 in 10.0 mi WNW 13.8 mph 24.2 mph N/A   Clear
1:54 PM 82.0 °F - 36.0 °F 19% 30.02 in 10.0 mi NW 11.5 mph 26.5 mph N/A   Clear
2:54 PM 84.9 °F - 34.0 °F 16% 29.99 in 10.0 mi West 16.1 mph 25.3 mph N/A   Clear
3:54 PM 86.0 °F - 37.0 °F 18% 29.96 in 10.0 mi WNW 17.3 mph 26.5 mph N/A   Clear
4:54 PM 87.1 °F - 36.0 °F 16% 29.93 in 10.0 mi NW 16.1 mph 26.5 mph N/A   Clear
5:54 PM 87.1 °F - 36.0 °F 16% 29.92 in 10.0 mi NW 15.0 mph 24.2 mph N/A   Clear
6:54 PM 82.9 °F - 37.0 °F 19% 29.93 in 10.0 mi NNW 10.4 mph - N/A   Clear
7:54 PM 73.9 °F - 43.0 °F 33% 29.93 in 10.0 mi WNW 6.9 mph - N/A   Clear
8:54 PM 69.1 °F - 44.1 °F 40% 29.97 in 10.0 mi NNW 8.1 mph - N/A   Clear
9:54 PM 71.1 °F - 43.0 °F 36% 30.01 in 10.0 mi North 13.8 mph - N/A   Clear
11:54 PM 57.9 °F - 42.1 °F 56% 30.08 in 10.0 mi NNW 5.8 mph - N/A   Clear